Zurück zum Katalog

STARLINK-30591

AktivKommunikationVLEO
NORAD 58088·PAYLOAD·🇺🇸 United States

Gestartet Oct 18, 2023 von Cape Canaveral Space Force Station

Loading…

Nächste Überflüge (nächste 24 Stunden)

TLE

AktuellSource: CelesTrak SupGP

Epoche: Sep 15, 2026, 03:23 UTC

1 58088C 23160P   26258.14145833 -.00033425  00000+0 -12104-2 0  2589
2 58088  43.0001  87.6579 0001677 267.5929  87.9748 15.27600209    18

Verfolge STARLINK-30591 in Echtzeit mit AllMySat

Download on the App Store